[[{"header":{"parameterUnit":"m.s-1","parameterCategory":1,"la1":30.2992,"la2":30.254,"lo1":-89.0895,"lo2":-89.0443,"dy":0.0025,"dx":0.0025,"nx":19,"ny":19,"refTime":"2026-04-07T09:00:00:Z","depth":0,"parameterNumber":2,"parameterNumberName":"U-component_of_WINDS"},"data":[0,0,0,-8.5531,-8.5534,-8.567,-8.5671,-8.5887,-8.5889,0,0,0,0,0,0,0,0,0,0,0,-8.5517,-8.5519,-8.5531,-8.5535,-8.567,-8.5671,-8.5886,-8.5889,0,0,0,0,0,0,0,0,0,0,0,-8.5515,-8.5518,-8.5521,-8.5535,-8.567,-8.5671,-8.5886,-8.5768,0,0,0,0,0,0,0,0,0,0,-8.5629,-8.5641,-8.5518,-8.5521,-8.5536,-8.567,-8.5671,-8.5762,-8.5775,-8.5843,0,-8.5911,0,-8.5904,-8.5906,-8.5907,0,0,0,-8.5515,-8.563,-8.5643,-8.5522,-8.5538,-8.567,-8.5604,-8.5769,-8.5784,-8.5862,-8.5914,-8.5921,-8.5907,-8.5908,-8.5909,-8.6369,-8.6372,0,0,-8.5508,-8.5555,-8.5633,-8.5655,-8.5637,-8.5599,-8.5608,-8.5777,-8.5837,-8.5914,-8.5925,-8.5911,-8.5909,-8.5911,-8.6366,-8.637,0,0,0,-8.5499,-8.5551,-8.5558,-8.5647,-8.5668,-8.5604,-8.5614,-8.5829,-8.5828,-8.5927,-8.5914,-8.5911,-8.5914,-8.6363,-8.6367,-8.6566,0,0,0,-8.5494,-8.5545,-8.5556,-8.5587,-8.5666,-8.5751,-8.5663,-8.5816,-8.5834,-8.5912,-8.5911,-8.5917,-8.6359,-8.6365,-8.6553,-8.6652,0,0,0,-8.5499,-8.5545,-8.5574,-8.5589,-8.5649,-8.5747,-8.5755,-8.5819,-8.5827,-8.5907,-8.5917,-8.6357,-8.6364,-8.6542,-8.6633,-8.6788,0,0,0,-8.5517,-8.5748,-8.5578,-8.583,-8.5648,-8.5869,-8.5753,-8.5914,-8.6007,-8.5912,-8.636,-8.6367,-8.6538,-8.6621,-8.6776,-8.6928,-8.6995,0,0,-8.5834,-8.5788,-8.5932,-8.5784,-8.6048,-8.5844,-8.6136,-8.6175,-8.6139,-8.6294,-8.6305,-8.6558,-8.6632,-8.6786,-8.7355,-8.7409,0,0,0,-8.6048,-8.6153,-8.6212,-8.6303,-8.634,-8.638,-8.6369,-8.6384,-8.6514,-8.6229,-8.6653,-8.6696,-8.6784,-8.6855,-8.69,-8.6974,-8.6401,-8.64,-8.64,-8.6564,-8.6507,-8.6743,-8.6703,-8.6793,-8.6781,-8.6848,-8.6866,-8.678,-8.6882,-8.6928,-8.728,-8.7364,-8.7398,-8.7476,-8.7002,-8.7003,-8.7004,-8.7004,-8.7024,-8.7163,-8.7046,-8.7233,-8.7172,-8.7327,-8.7326,-8.7261,-8.7397,-8.724,-8.7315,-8.715,-8.7459,-8.7524,-8.7019,-8.7016,-8.7014,-8.7013,-8.7012,-8.7356,-8.7413,-8.7428,-8.7555,-8.7659,-8.7609,-8.7747,-8.7685,-8.7628,-8.7702,-8.7744,-8.7741,-8.773,-8.7726,-8.7728,-8.7729,-8.773,-8.7731,-8.7732,-8.7694,-8.7705,-8.7828,-8.7889,-8.794,-8.7999,-8.7991,-8.804,-8.8078,-8.8022,-8.8022,-8.7928,-8.75,-8.7395,-8.775,-8.7747,-8.7745,-8.7743,-8.7742,-8.8182,-8.8063,-8.8254,-8.8306,-8.8372,-8.848,-8.84,-8.8505,-8.8536,-8.8606,-8.8496,-8.819,-8.8138,-8.8101,-8.8013,-8.8507,-8.8507,-8.8507,-8.8507,-8.8463,-8.8431,-8.8613,-8.87,-8.8778,-8.8726,-8.8945,-8.8942,-8.8919,-8.8935,-8.8855,-8.8733,-8.8698,-8.8666,-8.8617,-8.8534,-8.915,-8.915,-8.9151,-8.876,-8.8733,-8.8931,-8.8909,-8.8956,-8.8999,-8.9203,-8.9308,-8.9257,-8.9176,-8.8947,-8.892,-8.8722,-8.8661,-8.8574,-8.8499,-8.8346,0,0]},{"header":{"parameterUnit":"m.s-1","parameterCategory":1,"la1":30.2992,"la2":30.254,"lo1":-89.0895,"lo2":-89.0443,"dy":0.0025,"dx":0.0025,"nx":19,"ny":19,"refTime":"2026-04-07T09:00:00:Z","depth":0,"parameterNumber":3,"parameterNumberName":"V-component_of_WINDS"},"data":[0,0,0,-1.0513,-1.0515,-1.0592,-1.0592,-1.0694,-1.0695,0,0,0,0,0,0,0,0,0,0,0,-1.0492,-1.0493,-1.0513,-1.0515,-1.0592,-1.0592,-1.0694,-1.0695,0,0,0,0,0,0,0,0,0,0,0,-1.0492,-1.0492,-1.0493,-1.0515,-1.0592,-1.0592,-1.0693,-1.0634,0,0,0,0,0,0,0,0,0,0,-1.0559,-1.0541,-1.0492,-1.0493,-1.0516,-1.0592,-1.0592,-1.0632,-1.0638,-1.066,0,-1.0679,0,-1.0689,-1.0702,-1.0702,0,0,0,-1.0514,-1.0535,-1.0555,-1.0494,-1.0517,-1.0592,-1.0557,-1.0635,-1.0643,-1.0669,-1.0681,-1.0685,-1.069,-1.0702,-1.0703,-1.0829,-1.083,0,0,-1.051,-1.0507,-1.0549,-1.0559,-1.0547,-1.0555,-1.056,-1.064,-1.0653,-1.0681,-1.0687,-1.0692,-1.0703,-1.0704,-1.0829,-1.0829,0,0,0,-1.0498,-1.0504,-1.0521,-1.0555,-1.0569,-1.0557,-1.0563,-1.0649,-1.0655,-1.0688,-1.0693,-1.0704,-1.0705,-1.0828,-1.0829,-1.0856,0,0,0,-1.0496,-1.0497,-1.0519,-1.0518,-1.0567,-1.061,-1.0571,-1.065,-1.0659,-1.0693,-1.0704,-1.0706,-1.0827,-1.0828,-1.0854,-1.087,0,0,0,-1.0487,-1.0496,-1.0507,-1.0518,-1.0551,-1.0609,-1.0619,-1.0652,-1.0662,-1.0702,-1.0706,-1.0827,-1.0828,-1.0852,-1.0866,-1.0901,0,0,0,-1.0476,-1.0532,-1.0508,-1.0572,-1.055,-1.0625,-1.0619,-1.0675,-1.0712,-1.0704,-1.0827,-1.0829,-1.0851,-1.0864,-1.0899,-1.0931,-1.0943,0,0,-1.0545,-1.054,-1.0578,-1.0559,-1.0636,-1.0613,-1.0695,-1.0733,-1.0741,-1.0799,-1.0802,-1.0854,-1.0866,-1.0901,-1.1014,-1.1024,0,0,0,-1.0598,-1.0626,-1.0647,-1.0682,-1.0711,-1.0738,-1.0763,-1.0777,-1.0826,-1.077,-1.0876,-1.0884,-1.0904,-1.0919,-1.0928,-1.0946,-1.0835,-1.0835,-1.0835,-1.0692,-1.0697,-1.0759,-1.0773,-1.0807,-1.0832,-1.0859,-1.0882,-1.0879,-1.0904,-1.0922,-1.0989,-1.1007,-1.1013,-1.1032,-1.0938,-1.0938,-1.0938,-1.0938,-1.0793,-1.0832,-1.0823,-1.0881,-1.0886,-1.0935,-1.0961,-1.0956,-1.1002,-1.0977,-1.0995,-1.0967,-1.1024,-1.104,-1.0941,-1.094,-1.094,-1.094,-1.094,-1.0855,-1.0874,-1.0889,-1.0938,-1.0976,-1.0988,-1.1032,-1.1035,-1.1039,-1.1057,-1.1075,-1.1075,-1.1075,-1.1065,-1.1065,-1.1066,-1.1066,-1.1066,-1.1066,-1.0913,-1.0929,-1.0966,-1.1,-1.1021,-1.1051,-1.1075,-1.1096,-1.1121,-1.112,-1.112,-1.1114,-1.1028,-1.1007,-1.107,-1.1069,-1.1069,-1.1068,-1.1068,-1.1015,-1.0992,-1.1048,-1.107,-1.111,-1.1146,-1.1149,-1.1192,-1.1211,-1.1232,-1.1221,-1.1157,-1.1153,-1.1147,-1.1129,-1.122,-1.122,-1.122,-1.122,-1.1067,-1.1065,-1.1122,-1.1156,-1.119,-1.1198,-1.1261,-1.1279,-1.1296,-1.1307,-1.1294,-1.1271,-1.1264,-1.1264,-1.1255,-1.1238,-1.1355,-1.1355,-1.1355,-1.113,-1.113,-1.1184,-1.1197,-1.1228,-1.1255,-1.1314,-1.1354,-1.1367,-1.1361,-1.1316,-1.1311,-1.1273,-1.126,-1.1254,-1.1239,-1.1209,0,0]}]]